Location: Chugcreek
(42.0500°N, 104.9196°W)
Time: 16:49:40
(UTC+00:00)

Tiangong - Visible Passes

Search period start: 25 January 2022 00:00
Search period end: 04 February 2022 00:00
Orbit: 382 x 386 km, 41.5° (Epoch: 25 January)

Date Brightness Start Highest point End Pass type
(mag) Time Alt. Az. Time Alt. Az. Time Alt. Az.
26 Jan 4.2 02:26:58 10° SW 02:27:07 11° SSW 02:27:07 11° SSW visible
27 Jan 3.1 01:27:59 10° SSW 01:30:07 17° SSE 01:30:28 17° SE visible
28 Jan 2.6 02:03:53 10° SW 02:05:56 30° SSW 02:05:56 30° SSW visible
29 Jan 2.5 01:04:29 10° SW 01:07:13 26° SSE 01:09:08 15° ESE visible
29 Jan 4.2 02:40:39 10° WSW 02:41:21 15° WSW 02:41:21 15° WSW visible
30 Jan 1.3 01:40:55 10° WSW 01:44:02 57° SSE 01:44:28 50° SE visible
31 Jan 2.0 00:41:17 10° SW 00:44:17 40° SSE 00:47:16 10° E visible
31 Jan 2.7 02:17:48 10° W 02:19:45 34° W 02:19:45 34° W visible
01 Feb 1.1 01:17:58 10° WSW 01:21:08 73° S 01:22:48 25° E visible
01 Feb 4.6 02:54:45 10° W 02:55:01 12° W 02:55:01 12° W visible
02 Feb 1.0 01:54:52 10° W 01:58:02 81° S 01:58:02 81° S visible
03 Feb 1.1 00:54:58 10° W 00:58:09 82° S 01:01:04 12° E visible
03 Feb 3.4 02:31:47 10° W 02:33:16 24° W 02:33:16 24° W visible
